Location: Chuathbaluk
(61.5726°N, 159.2454°W)
Time: 15:12:41
(UTC+00:00)

NOAA 15 - Pass Details

Date: 26 January 2021
Orbit: 798 x 812 km, 98.7° (Epoch: 01 March)

Event Time Altitude Azimuth Distance (km) Brightness Sun altitude
Rises 06:57:26 0° 219° (SW) 3,310 8.0 -31.3°
Reaches altitude 10° 07:00:42 10° 241° (WSW) 2,388 7.5 -31.7°
Maximum altitude 07:03:54 16° 279° (W) 1,999 7.3 -32.0°
Drops below altitude 10° 07:07:08 10° 317° (NW) 2,403 7.8 -32.4°
Sets 07:10:28 0° 338° (NNW) 3,343 8.4 -32.8°
